[Date Prev][Date Next][Thread Prev][Thread Next] - [Date Index][Thread Index][Author Index]

2 Line ISS Keps 6-27



ISS
1 25544U 98067A   02178.09479167  .00040725  00000-0  53097-3 0  6049
2 25544  51.6384   3.2256 0007300 283.5964 223.6654 15.58267442205575


----
Via the sarex mailing list at AMSAT.ORG courtesy of AMSAT-NA.
To unsubscribe, send "unsubscribe sarex" to Majordomo@amsat.org



AMSAT Top AMSAT Home